Location: Munich
(48.1349°N, 11.5617°E)
Time: 19:31:16
(UTC+02:00)

ISS - Visible Passes

Search period start: 22 September 2018 00:00
Search period end: 02 October 2018 00:00
Orbit: 403 x 408 km, 51.6° (Epoch: 22 September)

Date Brightness Start Highest point End Pass type
(mag) Time Alt. Az. Time Alt. Az. Time Alt. Az.
22 Sep -2.3 20:26:28 10° S 20:28:51 20° SE 20:28:51 20° SE visible
23 Sep -2.9 21:10:03 10° SW 21:12:20 40° SW 21:12:20 40° SW visible
24 Sep -3.3 20:18:24 10° SW 20:21:30 39° SSE 20:22:53 25° E visible
24 Sep -1.0 21:54:42 10° W 21:55:36 17° W 21:55:36 17° W visible
25 Sep -3.8 21:02:44 10° WSW 21:05:59 75° NNW 21:05:59 75° NNW visible
26 Sep -3.9 20:10:50 10° WSW 20:14:07 76° SSE 20:16:17 20° ENE visible
26 Sep -1.2 21:47:36 10° W 21:48:58 22° WNW 21:48:58 22° WNW visible
27 Sep -3.3 20:55:32 10° W 20:58:47 52° NNW 20:59:08 49° NNE visible
28 Sep -3.6 20:03:30 10° WSW 20:06:47 67° NNW 20:09:15 16° ENE visible
28 Sep -1.3 21:40:25 10° WNW 21:41:55 23° WNW 21:41:55 23° WNW visible
29 Sep -3.0 20:48:21 10° WNW 20:51:32 43° N 20:51:58 41° NNE visible
30 Sep -3.1 19:56:16 10° W 19:59:29 48° N 20:01:59 15° ENE visible
30 Sep -1.4 21:33:06 10° WNW 21:34:39 24° NW 21:34:39 24° NW visible
01 Oct -3.1 20:41:04 10° WNW 20:44:16 44° N 20:44:38 42° NNE visible
